Torna al catalogo

STARLINK-37462

AttivoComunicazioniSSO
NORAD 68822·PAYLOAD·🇺🇸 United States

Lanciato Apr 23, 2026 da Vandenberg Space Force Base

Loading…

Prossimi Passaggi (prossime 24 ore)

TLE

AggiornatoSource: CelesTrak SupGP

Epoca: Sep 14, 2026, 22:51 UTC

1 68822C 26089W   26257.95256944  .00085791  00000+0  26642-2 0  2575
2 68822  97.2850 103.8349 0001811  95.4943 187.3961 15.33382970    19

Traccia STARLINK-37462 in tempo reale con AllMySat

Download on the App Store